{"data":{"norad_id":42955,"epoch":"2026-05-25T03:32:22.634016Z","epoch_age_seconds":69096,"freshness":"FRESH","line1":"1 42955U 17061A   26145.14748419  .00000088  00000+0  24367-4 0  9997","line2":"2 42955  86.3989  34.8983 0002244  84.1511 275.9941 14.34218362451479","mean_motion":14.34218362,"eccentricity":0.0002244,"inclination_deg":86.3989,"raan_deg":34.8983,"arg_perigee_deg":84.1511,"mean_anomaly_deg":275.9941,"bstar":2.4367e-5,"rev_number":45147,"period_min":100.40312118107,"perigee_km":776.05935670687,"apogee_km":779.27088069774,"semimajor_km":7155.8021187023,"source":"CELESTRAK","updated_at":"2026-05-25T13:38:14.801994Z"}}